Location: M?digepalle
(16.1753°N, 80.3496°E)
Time: 08:15:32
(UTC+00:00)

Cosmos 2219 - Pass Details

Date: 29 October 2020
Orbit: 832 x 862 km, 71.1° (Epoch: 27 November)

Event Time Altitude Azimuth Distance (km) Brightness Sun altitude
Rises 13:06:22 0° 349° (N) 3,431 6.4 -14.1°
Reaches altitude 10° 13:08:53 10° 354° (N) 2,493 5.6 -14.7°
Maximum altitude 13:14:31 58° 72° (ENE) 990 3.2 -16.1°
Drops below altitude 10° 13:20:07 10° 151° (SSE) 2,479 5.4 -17.4°
Sets 13:22:36 0° 155° (SSE) 3,410 6.2 -18.0°
